TimeEDT,TemperatureF,Dew PointF,Humidity,Sea Level PressureIn,VisibilityMPH,Wind Direction,Wind SpeedMPH,Gust SpeedMPH,PrecipitationIn,Events,Conditions,WindDirDegrees,DateUTC
12:04 AM,73.4,69.8,88,29.85,10.0,NE,3.5,-,N/A,,Mostly Cloudy,40,2013-08-29 04:04:00
12:54 AM,73.0,69.1,87,29.85,9.0,Calm,Calm,-,N/A,,Overcast,0,2013-08-29 04:54:00
1:28 AM,73.4,69.8,88,29.85,6.0,Calm,Calm,-,0.00,Rain,Light Rain,0,2013-08-29 05:28:00
1:40 AM,73.4,69.8,88,29.85,6.0,Calm,Calm,-,0.00,Rain,Light Rain,0,2013-08-29 05:40:00
1:54 AM,73.0,71.1,93,29.85,7.0,NNE,8.1,-,0.00,,Overcast,30,2013-08-29 05:54:00
2:44 AM,73.4,69.8,88,29.86,7.0,NE,9.2,-,0.00,,Overcast,50,2013-08-29 06:44:00
2:54 AM,73.0,70.0,90,29.86,7.0,NE,6.9,-,0.00,,Overcast,50,2013-08-29 06:54:00
3:01 AM,73.4,69.8,88,29.86,6.0,NNE,6.9,-,N/A,,Overcast,30,2013-08-29 07:01:00
3:15 AM,71.6,69.8,94,29.86,7.0,NE,6.9,-,N/A,,Overcast,40,2013-08-29 07:15:00
3:20 AM,71.6,69.8,94,29.86,7.0,NE,8.1,-,N/A,,Overcast,40,2013-08-29 07:20:00
3:41 AM,73.4,69.8,88,29.87,7.0,NNE,4.6,-,N/A,,Overcast,30,2013-08-29 07:41:00
3:54 AM,73.0,69.1,87,29.86,7.0,NNE,8.1,-,N/A,,Overcast,30,2013-08-29 07:54:00
4:16 AM,73.4,69.8,88,29.87,7.0,NE,10.4,-,N/A,,Overcast,40,2013-08-29 08:16:00
4:54 AM,73.0,69.1,87,29.87,5.0,NE,8.1,-,N/A,,Overcast,50,2013-08-29 08:54:00
5:54 AM,73.0,69.1,87,29.89,4.0,NNE,11.5,-,N/A,,Overcast,30,2013-08-29 09:54:00
6:01 AM,73.4,69.8,88,29.90,4.0,NNE,8.1,-,N/A,,Overcast,20,2013-08-29 10:01:00
6:54 AM,73.0,68.0,84,29.92,3.0,NE,9.2,-,N/A,,Haze,40,2013-08-29 10:54:00
7:15 AM,73.4,68.0,83,29.92,2.5,NNE,10.4,23.0,N/A,,Haze,20,2013-08-29 11:15:00
7:54 AM,73.9,68.0,82,29.94,2.5,NE,9.2,-,N/A,,Haze,40,2013-08-29 11:54:00
8:08 AM,73.4,68.0,83,29.94,3.0,NE,9.2,-,N/A,,Haze,40,2013-08-29 12:08:00
8:17 AM,73.4,68.0,83,29.95,3.0,NE,9.2,-,N/A,,Haze,40,2013-08-29 12:17:00
8:29 AM,73.4,68.0,83,29.95,3.0,NE,11.5,-,N/A,,Haze,40,2013-08-29 12:29:00
8:41 AM,75.2,68.0,78,29.96,3.0,NE,10.4,-,N/A,,Haze,50,2013-08-29 12:41:00
8:54 AM,75.0,68.0,79,29.96,3.0,ENE,11.5,-,N/A,,Haze,60,2013-08-29 12:54:00
9:54 AM,75.0,68.0,79,29.97,4.0,ENE,12.7,-,N/A,,Haze,60,2013-08-29 13:54:00
10:28 AM,75.2,68.0,78,29.98,5.0,NNE,11.5,-,N/A,,Haze,30,2013-08-29 14:28:00
10:54 AM,77.0,68.0,74,29.98,6.0,NE,8.1,-,N/A,,Haze,50,2013-08-29 14:54:00
11:54 AM,79.0,66.9,66,29.99,6.0,NE,12.7,-,N/A,,Haze,50,2013-08-29 15:54:00
12:54 PM,80.1,66.9,64,29.99,6.0,ENE,10.4,-,N/A,,Haze,70,2013-08-29 16:54:00
1:17 PM,80.6,66.2,61,29.99,6.0,ENE,11.5,-,N/A,,Haze,60,2013-08-29 17:17:00
1:54 PM,82.0,66.0,58,29.99,6.0,ENE,8.1,-,N/A,,Haze,70,2013-08-29 17:54:00
2:54 PM,86.0,64.0,48,29.98,7.0,NNE,10.4,16.1,N/A,,Scattered Clouds,30,2013-08-29 18:54:00
3:54 PM,82.9,64.9,54,29.98,10.0,East,8.1,-,N/A,,Mostly Cloudy,90,2013-08-29 19:54:00
4:54 PM,82.9,64.0,53,29.97,10.0,North,5.8,-,N/A,,Scattered Clouds,10,2013-08-29 20:54:00
5:54 PM,82.0,68.0,62,29.97,10.0,ESE,8.1,-,N/A,,Partly Cloudy,110,2013-08-29 21:54:00
6:54 PM,81.0,66.9,62,29.98,10.0,ESE,5.8,-,N/A,,Partly Cloudy,110,2013-08-29 22:54:00
7:54 PM,79.0,66.0,64,30.00,10.0,East,6.9,-,N/A,,Mostly Cloudy,100,2013-08-29 23:54:00
8:52 PM,77.0,68.0,74,30.01,10.0,SE,3.5,-,N/A,,Scattered Clouds,130,2013-08-30 00:52:00
8:54 PM,77.0,68.0,74,30.01,10.0,SE,3.5,-,N/A,,Scattered Clouds,130,2013-08-30 00:54:00
9:54 PM,75.0,69.1,82,30.02,10.0,South,3.5,-,N/A,,Scattered Clouds,170,2013-08-30 01:54:00
10:36 PM,73.4,69.8,88,30.02,9.0,South,3.5,-,N/A,,Mostly Cloudy,180,2013-08-30 02:36:00
10:54 PM,73.9,69.1,85,30.02,10.0,SSE,4.6,-,N/A,,Mostly Cloudy,150,2013-08-30 02:54:00
11:54 PM,72.0,68.0,87,30.03,10.0,SE,4.6,-,N/A,,Mostly Cloudy,140,2013-08-30 03:54:00